| time (UTC) | temp F | wind direction | speed MPH | gust MPH | rain 1hr in | rain 24hr in | rain mn in | humidity % | barometer mb |
| 20260510033710 | 57 | 194 | 0.0 | 0.0 | 0.00 | 0.00 | 0.00 | 90 | 1010.9 |
| 20260510033209 | 57 | 194 | 0.0 | 0.0 | 0.00 | 0.00 | 0.00 | 89 | 1010.8 |
| 20260510032705 | 57 | 194 | 0.0 | 0.0 | 0.00 | 0.00 | 0.00 | 88 | 1010.8 |
| 20260510032200 | 58 | 194 | 0.0 | 0.0 | 0.00 | 0.00 | 0.00 | 88 | 1010.7 |
| 20260510031655 | 58 | 194 | 0.0 | 0.0 | 0.00 | 0.00 | 0.00 | 88 | 1011.0 |
| 20260510031152 | 59 | 194 | 0.0 | 0.0 | 0.00 | 0.00 | 0.00 | 87 | 1010.9 |
| 20260510030652 | 59 | 194 | 0.0 | 0.0 | 0.00 | 0.00 | 0.00 | 87 | 1010.8 |
| 20260510030150 | 59 | 194 | 0.0 | 0.0 | 0.00 | 0.00 | 0.00 | 87 | 1010.8 |
| 20260510025647 | 59 | 194 | 0.0 | 0.0 | 0.00 | 0.00 | 0.00 | 86 | 1011.0 |
| 20260510025144 | 59 | 194 | 0.0 | 0.0 | 0.00 | 0.00 | 0.00 | 86 | 1011.0 |
| 20260510024641 | 59 | 194 | 0.0 | 0.0 | 0.00 | 0.00 | 0.00 | 85 | 1010.8 |
| 20260510024137 | 60 | 194 | 0.0 | 0.0 | 0.00 | 0.00 | 0.00 | 84 | 1010.8 |
| 20260510023633 | 60 | 194 | 0.0 | 0.0 | 0.00 | 0.00 | 0.00 | 83 | 1010.8 |
| 20260510023131 | 60 | 194 | 0.0 | 0.0 | 0.00 | 0.00 | 0.00 | 83 | 1010.7 |
| 20260510022631 | 61 | 194 | 0.0 | 0.0 | 0.00 | 0.00 | 0.00 | 82 | 1010.7 |
| 20260510022126 | 61 | 194 | 0.0 | 0.0 | 0.00 | 0.00 | 0.00 | 82 | 1010.6 |
| 20260510021622 | 61 | 194 | 0.0 | 0.0 | 0.00 | 0.00 | 0.00 | 81 | 1010.5 |
| 20260510021120 | 61 | 194 | 0.0 | 0.0 | 0.00 | 0.00 | 0.00 | 81 | 1010.6 |
| 20260510020613 | 61 | 194 | 0.0 | 0.0 | 0.00 | 0.00 | 0.00 | 81 | 1010.6 |
| 20260510020109 | 61 | 194 | 0.0 | 0.0 | 0.00 | 0.00 | 0.00 | 80 | 1010.6 |
| 20260510015605 | 61 | 194 | 0.0 | 0.0 | 0.00 | 0.00 | 0.00 | 80 | 1010.5 |
| 20260510015102 | 61 | 194 | 0.0 | 0.0 | 0.00 | 0.00 | 0.00 | 80 | 1010.4 |
| 20260510014557 | 61 | 194 | 0.0 | 0.0 | 0.00 | 0.00 | 0.00 | 80 | 1010.4 |
| 20260510014056 | 61 | 193 | 0.0 | 0.0 | 0.00 | 0.00 | 0.00 | 80 | 1010.3 |
| 20260510013555 | 61 | 195 | 0.0 | 0.0 | 0.00 | 0.00 | 0.00 | 80 | 1010.4 |
| 20260510013052 | 61 | 221 | 0.0 | 0.0 | 0.00 | 0.00 | 0.00 | 79 | 1010.3 |
| 20260510012551 | 62 | 191 | 0.0 | 0.0 | 0.00 | 0.00 | 0.00 | 79 | 1009.9 |
| 20260510012048 | 62 | 191 | 0.0 | 0.0 | 0.00 | 0.00 | 0.00 | 78 | 1009.7 |
| 20260510011547 | 62 | 191 | 0.0 | 0.0 | 0.00 | 0.00 | 0.00 | 78 | 1009.9 |
| 20260510011043 | 62 | 191 | 0.0 | 0.0 | 0.00 | 0.00 | 0.00 | 78 | 1009.6 |
| 20260510010540 | 62 | 191 | 0.0 | 0.0 | 0.00 | 0.00 | 0.00 | 78 | 1009.8 |
| 20260510010037 | 62 | 191 | 0.0 | 0.0 | 0.00 | 0.00 | 0.00 | 77 | 1009.3 |
| 20260510005533 | 62 | 191 | 0.0 | 0.0 | 0.00 | 0.00 | 0.00 | 76 | 1009.7 |
| 20260510005031 | 63 | 191 | 0.0 | 0.0 | 0.00 | 0.00 | 0.00 | 75 | 1009.6 |
| 20260510004528 | 63 | 191 | 0.0 | 0.0 | 0.00 | 0.00 | 0.00 | 73 | 1009.7 |
| 20260510004026 | 64 | 191 | 0.0 | 0.0 | 0.00 | 0.00 | 0.00 | 73 | 1009.3 |
| 20260510003523 | 64 | 191 | 0.0 | 0.0 | 0.00 | 0.00 | 0.00 | 72 | 1009.5 |
| 20260510003018 | 65 | 191 | 0.0 | 0.0 | 0.00 | 0.00 | 0.00 | 70 | 1009.3 |
| 20260510002514 | 66 | 191 | 0.0 | 0.0 | 0.00 | 0.00 | 0.00 | 69 | 1009.4 |
| 20260510002011 | 66 | 191 | 0.0 | 0.0 | 0.00 | 0.00 | 0.00 | 68 | 1009.4 |
| 20260510001508 | 67 | 191 | 0.0 | 0.0 | 0.00 | 0.00 | 0.00 | 66 | 1009.4 |
| 20260510001006 | 68 | 191 | 0.0 | 0.0 | 0.00 | 0.00 | 0.00 | 65 | 1009.3 |
| 20260510000501 | 68 | 191 | 0.0 | 0.0 | 0.00 | 0.00 | 0.00 | 64 | 1009.2 |
| 20260509235958 | 69 | 191 | 0.0 | 0.0 | 0.00 | 0.00 | 0.00 | 63 | 1009.2 |
| 20260509235455 | 70 | 191 | 0.0 | 0.0 | 0.00 | 0.00 | 0.00 | 61 | 1009.1 |
| 20260509234951 | 71 | 191 | 0.0 | 0.0 | 0.00 | 0.00 | 0.00 | 59 | 1009.2 |
| 20260509234448 | 71 | 191 | 0.0 | 0.0 | 0.00 | 0.00 | 0.00 | 59 | 1009.3 |
| 20260509233946 | 72 | 191 | 0.0 | 0.0 | 0.00 | 0.00 | 0.00 | 57 | 1009.0 |
| 20260509233443 | 72 | 192 | 0.0 | 0.0 | 0.00 | 0.00 | 0.00 | 56 | 1009.1 |
| 20260509232939 | 73 | 192 | 0.0 | 0.0 | 0.00 | 0.00 | 0.00 | 55 | 1008.9 |
| 20260509232437 | 72 | 192 | 0.0 | 0.0 | 0.00 | 0.00 | 0.00 | 55 | 1009.1 |
| 20260509231932 | 72 | 192 | 0.0 | 0.0 | 0.00 | 0.00 | 0.00 | 55 | 1009.1 |
| 20260509231430 | 72 | 187 | 0.0 | 0.0 | 0.00 | 0.00 | 0.00 | 54 | 1009.0 |
| 20260509230928 | 72 | 186 | 0.0 | 1.0 | 0.00 | 0.00 | 0.00 | 54 | 1008.9 |
| 20260509230424 | 72 | 188 | 2.0 | 2.0 | 0.00 | 0.00 | 0.00 | 54 | 1009.2 |
| 20260509225920 | 73 | 161 | 2.0 | 2.0 | 0.00 | 0.00 | 0.00 | 54 | 1008.9 |
| 20260509225417 | 73 | 196 | 1.0 | 6.0 | 0.00 | 0.00 | 0.00 | 54 | 1008.9 |
| 20260509224913 | 73 | 192 | 0.0 | 2.0 | 0.00 | 0.00 | 0.00 | 53 | 1009.2 |
| 20260509224414 | 74 | 192 | 2.0 | 3.0 | 0.00 | 0.00 | 0.00 | 52 | 1008.9 |
| 20260509223911 | 74 | 199 | 0.0 | 2.0 | 0.00 | 0.00 | 0.00 | 54 | 1009.1 |
| 20260509223408 | 73 | 160 | 4.0 | 4.0 | 0.00 | 0.00 | 0.00 | 52 | 1009.1 |
| 20260509222905 | 73 | 168 | 2.0 | 7.0 | 0.00 | 0.00 | 0.00 | 53 | 1008.9 |
| 20260509222400 | 74 | 156 | 3.0 | 6.0 | 0.00 | 0.00 | 0.00 | 50 | 1008.8 |
| 20260509221855 | 75 | 199 | 3.0 | 4.0 | 0.00 | 0.00 | 0.00 | 49 | 1008.8 |
| 20260509221353 | 75 | 194 | 1.0 | 1.0 | 0.00 | 0.00 | 0.00 | 48 | 1009.0 |
| 20260509220849 | 75 | 228 | 0.0 | 2.0 | 0.00 | 0.00 | 0.00 | 48 | 1008.9 |
| 20260509220345 | 76 | 310 | 1.0 | 2.0 | 0.00 | 0.00 | 0.00 | 47 | 1009.0 |
| 20260509215840 | 77 | 299 | 1.0 | 4.0 | 0.00 | 0.00 | 0.00 | 46 | 1009.1 |
| 20260509215337 | 78 | 258 | 2.0 | 6.0 | 0.00 | 0.00 | 0.00 | 44 | 1008.8 |
| 20260509214834 | 78 | 347 | 1.0 | 2.0 | 0.00 | 0.00 | 0.00 | 46 | 1008.8 |
| 20260509214332 | 78 | 189 | 0.0 | 3.0 | 0.00 | 0.00 | 0.00 | 46 | 1008.8 |
| 20260509213829 | 76 | 236 | 1.0 | 2.0 | 0.00 | 0.00 | 0.00 | 49 | 1009.0 |
| 20260509213324 | 74 | 242 | 1.0 | 3.0 | 0.00 | 0.00 | 0.00 | 52 | 1008.8 |
| 20260509212822 | 74 | 211 | 1.0 | 2.0 | 0.00 | 0.00 | 0.00 | 50 | 1008.9 |
| 20260509212320 | 76 | 240 | 2.0 | 3.0 | 0.00 | 0.00 | 0.00 | 48 | 1009.0 |
| 20260509211815 | 78 | 249 | 1.0 | 2.0 | 0.00 | 0.00 | 0.00 | 46 | 1008.9 |
| 20260509211311 | 77 | 269 | 2.0 | 3.0 | 0.00 | 0.00 | 0.00 | 48 | 1009.0 |
| 20260509210808 | 75 | 279 | 0.0 | 1.0 | 0.00 | 0.00 | 0.00 | 49 | 1009.0 |
| 20260509210306 | 75 | 205 | 1.0 | 3.0 | 0.00 | 0.00 | 0.00 | 49 | 1008.9 |
| 20260509205804 | 77 | 237 | 1.0 | 4.0 | 0.00 | 0.00 | 0.00 | 48 | 1008.9 |
| 20260509205300 | 76 | 244 | 3.0 | 4.0 | 0.00 | 0.00 | 0.00 | 47 | 1008.9 |
| 20260509204756 | 75 | 131 | 3.0 | 6.0 | 0.00 | 0.00 | 0.00 | 49 | 1009.0 |
| 20260509204252 | 75 | 214 | 2.0 | 7.0 | 0.00 | 0.00 | 0.00 | 50 | 1009.0 |
| 20260509203748 | 75 | 203 | 3.0 | 3.0 | 0.00 | 0.00 | 0.00 | 49 | 1008.9 |
| 20260509203246 | 75 | 179 | 2.0 | 6.0 | 0.00 | 0.00 | 0.00 | 49 | 1008.9 |
| 20260509202742 | 74 | 207 | 1.0 | 3.0 | 0.00 | 0.00 | 0.00 | 52 | 1008.6 |
| 20260509202238 | 75 | 90 | 3.0 | 6.0 | 0.00 | 0.00 | 0.00 | 49 | 1008.6 |
| 20260509201733 | 75 | 132 | 1.0 | 3.0 | 0.00 | 0.00 | 0.00 | 50 | 1008.9 |
| 20260509201230 | 75 | 204 | 5.0 | 7.0 | 0.00 | 0.00 | 0.00 | 50 | 1008.8 |
| 20260509200726 | 74 | 225 | 1.0 | 3.0 | 0.00 | 0.00 | 0.00 | 52 | 1009.0 |
| 20260509200221 | 74 | 133 | 4.0 | 10.0 | 0.00 | 0.00 | 0.00 | 51 | 1009.0 |
| 20260509195717 | 74 | 171 | 3.0 | 8.0 | 0.00 | 0.00 | 0.00 | 52 | 1009.3 |
| 20260509195213 | 74 | 247 | 2.0 | 6.0 | 0.00 | 0.00 | 0.00 | 52 | 1009.2 |
| 20260509194713 | 74 | 213 | 0.0 | 4.0 | 0.00 | 0.00 | 0.00 | 52 | 1009.4 |
| 20260509194209 | 74 | 185 | 4.0 | 4.0 | 0.00 | 0.00 | 0.00 | 49 | 1009.3 |
| 20260509193706 | 73 | 216 | 2.0 | 3.0 | 0.00 | 0.00 | 0.00 | 56 | 1009.4 |
| 20260509193201 | 73 | 338 | 2.0 | 6.0 | 0.00 | 0.00 | 0.00 | 56 | 1009.5 |
| 20260509192657 | 73 | 157 | 2.0 | 6.0 | 0.00 | 0.00 | 0.00 | 54 | 1009.7 |
| 20260509192158 | 73 | 186 | 2.0 | 4.0 | 0.00 | 0.00 | 0.00 | 54 | 1009.9 |
| 20260509191653 | 74 | 219 | 3.0 | 3.0 | 0.00 | 0.00 | 0.00 | 54 | 1010.0 |
| 20260509191150 | 74 | 183 | 0.0 | 2.0 | 0.00 | 0.00 | 0.00 | 54 | 1010.0 |
| 20260509190646 | 72 | 255 | 1.0 | 1.0 | 0.00 | 0.00 | 0.00 | 57 | 1010.0 |
| 20260509190143 | 71 | 242 | 1.0 | 1.0 | 0.00 | 0.00 | 0.00 | 58 | 1009.9 |
| 20260509185641 | 72 | 138 | 4.0 | 8.0 | 0.00 | 0.00 | 0.00 | 55 | 1009.9 |
| 20260509185137 | 73 | 160 | 2.0 | 3.0 | 0.00 | 0.00 | 0.00 | 54 | 1010.0 |
| 20260509184635 | 71 | 241 | 2.0 | 2.0 | 0.00 | 0.00 | 0.00 | 56 | 1009.9 |
| 20260509184131 | 71 | 165 | 1.0 | 2.0 | 0.00 | 0.00 | 0.00 | 57 | 1009.9 |
| 20260509183628 | 72 | 177 | 4.0 | 8.0 | 0.00 | 0.00 | 0.00 | 52 | 1010.0 |
| 20260509183123 | 72 | 217 | 0.0 | 1.0 | 0.00 | 0.00 | 0.00 | 55 | 1010.1 |
| 20260509182619 | 72 | 243 | 1.0 | 1.0 | 0.00 | 0.00 | 0.00 | 54 | 1010.2 |
| 20260509182117 | 71 | 220 | 0.0 | 0.0 | 0.00 | 0.00 | 0.00 | 55 | 1010.2 |
| 20260509181615 | 71 | 143 | 1.0 | 3.0 | 0.00 | 0.00 | 0.00 | 55 | 1010.4 |
| 20260509181111 | 70 | 219 | 0.0 | 1.0 | 0.00 | 0.00 | 0.00 | 56 | 1010.4 |
| 20260509180608 | 69 | 236 | 1.0 | 4.0 | 0.00 | 0.00 | 0.00 | 57 | 1010.6 |
| 20260509180105 | 69 | 184 | 0.0 | 2.0 | 0.00 | 0.00 | 0.00 | 59 | 1010.8 |
| 20260509175601 | 68 | 238 | 3.0 | 4.0 | 0.00 | 0.00 | 0.00 | 58 | 1010.7 |
| 20260509175058 | 69 | 234 | 1.0 | 1.0 | 0.00 | 0.00 | 0.00 | 59 | 1010.9 |
| 20260509174554 | 69 | 228 | 0.0 | 1.0 | 0.00 | 0.00 | 0.00 | 56 | 1010.9 |
| 20260509174049 | 70 | 211 | 0.0 | 3.0 | 0.00 | 0.00 | 0.00 | 56 | 1010.8 |
| 20260509173549 | 70 | 196 | 0.0 | 2.0 | 0.00 | 0.00 | 0.00 | 55 | 1010.9 |
| 20260509173046 | 71 | 203 | 2.0 | 4.0 | 0.00 | 0.00 | 0.00 | 54 | 1011.1 |
| 20260509172543 | 72 | 257 | 1.0 | 2.0 | 0.00 | 0.00 | 0.00 | 54 | 1010.9 |
| 20260509172039 | 72 | 211 | 2.0 | 3.0 | 0.00 | 0.00 | 0.00 | 55 | 1010.9 |
| 20260509171535 | 71 | 229 | 1.0 | 2.0 | 0.00 | 0.00 | 0.00 | 54 | 1011.1 |
| 20260509171032 | 72 | 261 | 2.0 | 4.0 | 0.00 | 0.00 | 0.00 | 52 | 1011.0 |
| 20260509170527 | 71 | 227 | 0.0 | 1.0 | 0.00 | 0.00 | 0.00 | 54 | 1011.1 |
| 20260509170023 | 70 | 241 | 1.0 | 2.0 | 0.00 | 0.00 | 0.00 | 55 | 1011.2 |
| 20260509165522 | 69 | 208 | 1.0 | 2.0 | 0.00 | 0.00 | 0.00 | 56 | 1011.1 |
| 20260509165018 | 69 | 223 | 3.0 | 4.0 | 0.00 | 0.00 | 0.00 | 54 | 1011.1 |
| 20260509164514 | 69 | 229 | 1.0 | 4.0 | 0.00 | 0.00 | 0.00 | 56 | 1011.3 |
| 20260509164010 | 69 | 202 | 4.0 | 7.0 | 0.00 | 0.00 | 0.00 | 55 | 1011.3 |
| 20260509163508 | 69 | 138 | 3.0 | 7.0 | 0.00 | 0.00 | 0.00 | 55 | 1011.3 |
| 20260509163008 | 71 | 223 | 0.0 | 4.0 | 0.00 | 0.00 | 0.00 | 55 | 1011.2 |
| 20260509162506 | 71 | 202 | 0.0 | 1.0 | 0.00 | 0.00 | 0.00 | 55 | 1011.1 |
| 20260509162001 | 71 | 213 | 1.0 | 6.0 | 0.00 | 0.00 | 0.00 | 55 | 1011.1 |
| 20260509161458 | 72 | 160 | 2.0 | 4.0 | 0.00 | 0.00 | 0.00 | 53 | 1011.4 |
| 20260509160953 | 72 | 227 | 1.0 | 3.0 | 0.00 | 0.00 | 0.00 | 53 | 1011.1 |
| 20260509160450 | 71 | 194 | 1.0 | 3.0 | 0.00 | 0.00 | 0.00 | 53 | 1011.2 |
| 20260509155949 | 70 | 210 | 0.0 | 1.0 | 0.00 | 0.00 | 0.00 | 55 | 1011.3 |
| 20260509155447 | 70 | 178 | 1.0 | 3.0 | 0.00 | 0.00 | 0.00 | 55 | 1011.3 |
| 20260509154943 | 71 | 211 | 3.0 | 9.0 | 0.00 | 0.00 | 0.00 | 54 | 1011.3 |
| 20260509154439 | 71 | 268 | 1.0 | 8.0 | 0.00 | 0.00 | 0.00 | 55 | 1011.6 |
| 20260509153937 | 69 | 208 | 1.0 | 4.0 | 0.00 | 0.00 | 0.00 | 55 | 1011.5 |
| 20260509153433 | 71 | 164 | 6.0 | 8.0 | 0.00 | 0.00 | 0.00 | 52 | 1011.5 |
| 20260509152931 | 71 | 225 | 0.0 | 4.0 | 0.00 | 0.00 | 0.00 | 54 | 1011.5 |
| 20260509152426 | 70 | 196 | 1.0 | 3.0 | 0.00 | 0.00 | 0.00 | 56 | 1011.6 |
| 20260509151924 | 70 | 183 | 0.0 | 2.0 | 0.00 | 0.00 | 0.00 | 55 | 1011.5 |
| 20260509151419 | 69 | 216 | 1.0 | 3.0 | 0.00 | 0.00 | 0.00 | 58 | 1011.6 |
| 20260509150918 | 68 | 188 | 4.0 | 7.0 | 0.00 | 0.00 | 0.00 | 56 | 1011.7 |
| 20260509150415 | 68 | 169 | 3.0 | 3.0 | 0.00 | 0.00 | 0.00 | 55 | 1011.7 |
| 20260509145914 | 68 | 154 | 3.0 | 3.0 | 0.00 | 0.00 | 0.00 | 56 | 1011.7 |
| 20260509145413 | 67 | 106 | 2.0 | 3.0 | 0.00 | 0.00 | 0.00 | 57 | 1011.7 |
| 20260509144909 | 66 | 297 | 2.0 | 2.0 | 0.00 | 0.00 | 0.00 | 60 | 1012.0 |
| 20260509144406 | 66 | 172 | 1.0 | 2.0 | 0.00 | 0.00 | 0.00 | 60 | 1011.9 |
| 20260509143903 | 66 | 185 | 1.0 | 2.0 | 0.00 | 0.00 | 0.00 | 61 | 1012.0 |
| 20260509143401 | 64 | 179 | 1.0 | 2.0 | 0.00 | 0.00 | 0.00 | 63 | 1012.2 |
| 20260509142857 | 62 | 162 | 1.0 | 7.0 | 0.00 | 0.00 | 0.00 | 63 | 1012.3 |
| 20260509142353 | 63 | 137 | 4.0 | 6.0 | 0.00 | 0.00 | 0.00 | 63 | 1012.3 |
| 20260509141849 | 63 | 189 | 3.0 | 4.0 | 0.00 | 0.00 | 0.00 | 63 | 1012.3 |
| 20260509141346 | 63 | 171 | 4.0 | 6.0 | 0.00 | 0.00 | 0.00 | 62 | 1012.3 |
| 20260509140843 | 62 | 169 | 1.0 | 3.0 | 0.00 | 0.00 | 0.00 | 62 | 1012.4 |
| 20260509140340 | 63 | 217 | 0.0 | 1.0 | 0.00 | 0.00 | 0.00 | 62 | 1012.2 |
| 20260509135838 | 62 | 226 | 0.0 | 1.0 | 0.00 | 0.00 | 0.00 | 62 | 1012.2 |
| 20260509135335 | 62 | 225 | 0.0 | 1.0 | 0.00 | 0.00 | 0.00 | 63 | 1012.3 |
| 20260509134832 | 61 | 209 | 0.0 | 4.0 | 0.00 | 0.00 | 0.00 | 62 | 1012.2 |
| 20260509134329 | 61 | 152 | 0.0 | 4.0 | 0.00 | 0.00 | 0.00 | 63 | 1012.2 |
| 20260509133826 | 62 | 165 | 2.0 | 3.0 | 0.00 | 0.00 | 0.00 | 62 | 1012.4 |
| 20260509133323 | 62 | 240 | 2.0 | 2.0 | 0.00 | 0.00 | 0.00 | 63 | 1012.3 |
| 20260509132822 | 61 | 252 | 0.0 | 1.0 | 0.00 | 0.00 | 0.00 | 62 | 1012.4 |
| 20260509132320 | 61 | 164 | 1.0 | 2.0 | 0.00 | 0.00 | 0.00 | 63 | 1012.4 |
| 20260509131816 | 61 | 217 | 0.0 | 1.0 | 0.00 | 0.00 | 0.00 | 65 | 1012.4 |
| 20260509131313 | 61 | 219 | 1.0 | 1.0 | 0.00 | 0.00 | 0.00 | 65 | 1012.5 |
| 20260509130809 | 61 | 236 | 0.0 | 1.0 | 0.00 | 0.00 | 0.00 | 65 | 1012.5 |
| 20260509130305 | 61 | 277 | 1.0 | 2.0 | 0.00 | 0.00 | 0.00 | 65 | 1012.4 |
| 20260509125802 | 61 | 207 | 0.0 | 2.0 | 0.00 | 0.00 | 0.00 | 64 | 1012.4 |
| 20260509125258 | 60 | 186 | 0.0 | 1.0 | 0.00 | 0.00 | 0.00 | 66 | 1012.2 |
| 20260509124755 | 60 | 179 | 2.0 | 3.0 | 0.00 | 0.00 | 0.00 | 65 | 1012.1 |
| 20260509124251 | 60 | 190 | 3.0 | 4.0 | 0.00 | 0.00 | 0.00 | 65 | 1012.2 |
| 20260509123750 | 60 | 178 | 2.0 | 3.0 | 0.00 | 0.00 | 0.00 | 64 | 1012.1 |
| 20260509123247 | 60 | 179 | 1.0 | 2.0 | 0.00 | 0.00 | 0.00 | 65 | 1012.2 |
| 20260509122742 | 60 | 153 | 4.0 | 6.0 | 0.00 | 0.00 | 0.00 | 64 | 1012.2 |
| 20260509122239 | 60 | 187 | 0.0 | 1.0 | 0.00 | 0.00 | 0.00 | 65 | 1012.0 |
| 20260509121736 | 60 | 335 | 2.0 | 7.0 | 0.00 | 0.00 | 0.00 | 64 | 1012.1 |
| 20260509121233 | 60 | 167 | 2.0 | 10.0 | 0.00 | 0.00 | 0.00 | 63 | 1012.3 |
| 20260509120732 | 60 | 204 | 1.0 | 2.0 | 0.00 | 0.00 | 0.00 | 64 | 1012.1 |
| 20260509120229 | 60 | 219 | 2.0 | 3.0 | 0.00 | 0.00 | 0.00 | 63 | 1012.2 |
| 20260509115727 | 60 | 183 | 1.0 | 2.0 | 0.00 | 0.00 | 0.00 | 63 | 1012.0 |
| 20260509115224 | 59 | 198 | 1.0 | 2.0 | 0.00 | 0.00 | 0.00 | 63 | 1012.2 |
| 20260509114722 | 59 | 225 | 2.0 | 2.0 | 0.00 | 0.00 | 0.00 | 62 | 1012.1 |
| 20260509114221 | 59 | 157 | 2.0 | 3.0 | 0.00 | 0.00 | 0.00 | 63 | 1012.2 |
| 20260509113719 | 59 | 197 | 1.0 | 2.0 | 0.00 | 0.00 | 0.00 | 63 | 1012.1 |
| 20260509113216 | 59 | 210 | 2.0 | 7.0 | 0.00 | 0.00 | 0.00 | 63 | 1012.0 |
| 20260509112712 | 59 | 207 | 1.0 | 2.0 | 0.00 | 0.00 | 0.00 | 63 | 1012.2 |
| 20260509112209 | 58 | 202 | 2.0 | 7.0 | 0.00 | 0.00 | 0.00 | 61 | 1011.9 |
| 20260509111706 | 58 | 219 | 0.0 | 1.0 | 0.00 | 0.00 | 0.00 | 61 | 1012.0 |
| 20260509111203 | 58 | 185 | 0.0 | 7.0 | 0.00 | 0.00 | 0.00 | 60 | 1011.9 |
| 20260509110701 | 58 | 186 | 1.0 | 6.0 | 0.00 | 0.00 | 0.00 | 59 | 1012.1 |
| 20260509110157 | 58 | 217 | 2.0 | 3.0 | 0.00 | 0.00 | 0.00 | 58 | 1012.0 |
| 20260509105655 | 58 | 221 | 1.0 | 3.0 | 0.00 | 0.00 | 0.00 | 58 | 1011.9 |
| 20260509105152 | 58 | 222 | 2.0 | 3.0 | 0.00 | 0.00 | 0.00 | 57 | 1011.7 |
| 20260509104649 | 58 | 172 | 0.0 | 3.0 | 0.00 | 0.00 | 0.00 | 56 | 1011.8 |
| 20260509104146 | 58 | 201 | 1.0 | 3.0 | 0.00 | 0.00 | 0.00 | 55 | 1011.7 |
| 20260509103644 | 58 | 220 | 0.0 | 1.0 | 0.00 | 0.00 | 0.00 | 56 | 1011.9 |
| 20260509103142 | 58 | 175 | 0.0 | 2.0 | 0.00 | 0.00 | 0.00 | 56 | 1011.8 |
| 20260509102639 | 58 | 217 | 1.0 | 1.0 | 0.00 | 0.00 | 0.00 | 55 | 1011.6 |
| 20260509102136 | 58 | 178 | 1.0 | 1.0 | 0.00 | 0.00 | 0.00 | 55 | 1011.5 |
| 20260509101632 | 58 | 231 | 0.0 | 1.0 | 0.00 | 0.00 | 0.00 | 56 | 1011.5 |
| 20260509101129 | 59 | 202 | 0.0 | 2.0 | 0.00 | 0.00 | 0.00 | 55 | 1011.7 |
| 20260509100627 | 58 | 181 | 0.0 | 1.0 | 0.00 | 0.00 | 0.00 | 54 | 1011.7 |
| 20260509100124 | 58 | 202 | 0.0 | 1.0 | 0.00 | 0.00 | 0.00 | 55 | 1011.7 |
| 20260509095620 | 58 | 188 | 1.0 | 2.0 | 0.00 | 0.00 | 0.00 | 55 | 1011.6 |
| 20260509095118 | 58 | 205 | 1.0 | 1.0 | 0.00 | 0.00 | 0.00 | 55 | 1011.3 |
| 20260509094613 | 59 | 205 | 0.0 | 1.0 | 0.00 | 0.00 | 0.00 | 55 | 1011.5 |
| 20260509094111 | 59 | 202 | 0.0 | 2.0 | 0.00 | 0.00 | 0.00 | 54 | 1011.4 |
| 20260509093610 | 59 | 197 | 0.0 | 1.0 | 0.00 | 0.00 | 0.00 | 55 | 1011.4 |
| 20260509093106 | 59 | 189 | 2.0 | 3.0 | 0.00 | 0.00 | 0.00 | 53 | 1011.7 |
| 20260509092604 | 59 | 194 | 1.0 | 3.0 | 0.00 | 0.00 | 0.00 | 54 | 1011.8 |
| 20260509092102 | 59 | 199 | 0.0 | 1.0 | 0.00 | 0.00 | 0.00 | 55 | 1011.6 |
| 20260509091600 | 58 | 215 | 0.0 | 2.0 | 0.00 | 0.00 | 0.00 | 56 | 1011.7 |
| 20260509091056 | 58 | 213 | 1.0 | 2.0 | 0.00 | 0.00 | 0.00 | 55 | 1011.4 |
| 20260509090553 | 58 | 187 | 1.0 | 2.0 | 0.00 | 0.00 | 0.00 | 55 | 1011.7 |
| 20260509090051 | 58 | 225 | 1.0 | 2.0 | 0.00 | 0.00 | 0.00 | 55 | 1011.6 |
| 20260509085548 | 58 | 236 | 1.0 | 4.0 | 0.00 | 0.00 | 0.00 | 55 | 1011.7 |
| 20260509085044 | 59 | 237 | 1.0 | 2.0 | 0.00 | 0.00 | 0.00 | 55 | 1011.9 |
| 20260509084541 | 59 | 239 | 2.0 | 6.0 | 0.00 | 0.00 | 0.00 | 54 | 1011.7 |
| 20260509084038 | 59 | 204 | 0.0 | 2.0 | 0.00 | 0.00 | 0.00 | 55 | 1011.8 |
| 20260509083536 | 59 | 219 | 4.0 | 6.0 | 0.00 | 0.00 | 0.00 | 54 | 1011.9 |
| 20260509083032 | 59 | 224 | 1.0 | 1.0 | 0.00 | 0.00 | 0.00 | 54 | 1011.9 |
| 20260509082530 | 59 | 230 | 1.0 | 3.0 | 0.00 | 0.00 | 0.00 | 54 | 1012.0 |
| 20260509082027 | 59 | 236 | 1.0 | 4.0 | 0.00 | 0.00 | 0.00 | 54 | 1012.0 |
| 20260509081524 | 59 | 214 | 2.0 | 3.0 | 0.00 | 0.00 | 0.00 | 54 | 1012.2 |
| 20260509081021 | 59 | 219 | 1.0 | 4.0 | 0.00 | 0.00 | 0.00 | 54 | 1012.1 |
| 20260509080519 | 59 | 231 | 2.0 | 3.0 | 0.00 | 0.00 | 0.00 | 55 | 1012.2 |
| 20260509080017 | 59 | 190 | 4.0 | 7.0 | 0.00 | 0.00 | 0.00 | 54 | 1012.3 |
| 20260509075513 | 59 | 176 | 2.0 | 4.0 | 0.00 | 0.00 | 0.00 | 54 | 1012.5 |
| 20260509075011 | 59 | 338 | 2.0 | 3.0 | 0.00 | 0.00 | 0.00 | 54 | 1012.3 |
| 20260509074508 | 59 | 188 | 2.0 | 4.0 | 0.00 | 0.00 | 0.00 | 54 | 1012.6 |
| 20260509074005 | 59 | 220 | 2.0 | 4.0 | 0.00 | 0.00 | 0.00 | 54 | 1012.3 |
| 20260509073501 | 59 | 207 | 2.0 | 4.0 | 0.00 | 0.00 | 0.00 | 54 | 1012.5 |
| 20260509072958 | 59 | 208 | 2.0 | 7.0 | 0.00 | 0.00 | 0.00 | 53 | 1012.4 |
| 20260509072455 | 59 | 21 | 2.0 | 4.0 | 0.00 | 0.00 | 0.00 | 54 | 1012.4 |
| 20260509071951 | 59 | 164 | 2.0 | 6.0 | 0.00 | 0.00 | 0.00 | 54 | 1012.5 |
| 20260509071448 | 58 | 246 | 2.0 | 4.0 | 0.00 | 0.00 | 0.00 | 54 | 1012.5 |
| 20260509070946 | 59 | 209 | 1.0 | 2.0 | 0.00 | 0.00 | 0.00 | 54 | 1012.4 |
| 20260509070442 | 59 | 204 | 2.0 | 9.0 | 0.00 | 0.00 | 0.00 | 53 | 1012.4 |
| 20260509065937 | 59 | 221 | 2.0 | 6.0 | 0.00 | 0.00 | 0.00 | 53 | 1012.6 |
| 20260509065434 | 59 | 230 | 1.0 | 3.0 | 0.00 | 0.00 | 0.00 | 54 | 1012.5 |
| 20260509064930 | 59 | 217 | 2.0 | 4.0 | 0.00 | 0.00 | 0.00 | 54 | 1012.4 |
| 20260509064428 | 59 | 199 | 2.0 | 3.0 | 0.00 | 0.00 | 0.00 | 53 | 1012.6 |
| 20260509063926 | 59 | 169 | 3.0 | 4.0 | 0.00 | 0.00 | 0.00 | 53 | 1012.5 |
| 20260509063421 | 59 | 256 | 1.0 | 7.0 | 0.00 | 0.00 | 0.00 | 53 | 1012.6 |
| 20260509062919 | 59 | 207 | 3.0 | 3.0 | 0.00 | 0.00 | 0.00 | 53 | 1012.7 |
| 20260509062416 | 59 | 150 | 3.0 | 6.0 | 0.00 | 0.00 | 0.00 | 53 | 1012.7 |
| 20260509061913 | 59 | 218 | 1.0 | 2.0 | 0.00 | 0.00 | 0.00 | 53 | 1012.9 |
| 20260509061411 | 59 | 215 | 0.0 | 4.0 | 0.00 | 0.00 | 0.00 | 53 | 1012.9 |
| 20260509060907 | 59 | 203 | 1.0 | 3.0 | 0.00 | 0.00 | 0.00 | 52 | 1012.8 |
| 20260509060405 | 59 | 254 | 1.0 | 3.0 | 0.00 | 0.00 | 0.00 | 52 | 1012.6 |
| 20260509055859 | 59 | 233 | 1.0 | 2.0 | 0.00 | 0.00 | 0.00 | 52 | 1012.7 |
| 20260509055355 | 59 | 216 | 1.0 | 9.0 | 0.00 | 0.00 | 0.00 | 51 | 1012.7 |
| 20260509054853 | 59 | 301 | 2.0 | 6.0 | 0.00 | 0.00 | 0.00 | 51 | 1012.6 |
| 20260509054349 | 59 | 216 | 1.0 | 2.0 | 0.00 | 0.00 | 0.00 | 51 | 1012.7 |
| 20260509053848 | 59 | 225 | 2.0 | 6.0 | 0.00 | 0.00 | 0.00 | 51 | 1012.9 |
| 20260509053345 | 59 | 204 | 1.0 | 2.0 | 0.00 | 0.00 | 0.00 | 52 | 1012.8 |
| 20260509052843 | 59 | 169 | 2.0 | 6.0 | 0.00 | 0.00 | 0.00 | 51 | 1012.8 |
| 20260509052340 | 59 | 215 | 1.0 | 7.0 | 0.00 | 0.00 | 0.00 | 51 | 1012.9 |
| 20260509051838 | 59 | 195 | 2.0 | 6.0 | 0.00 | 0.00 | 0.00 | 51 | 1012.8 |
| 20260509051336 | 59 | 182 | 1.0 | 4.0 | 0.00 | 0.00 | 0.00 | 51 | 1012.9 |
| 20260509050832 | 59 | 189 | 2.0 | 4.0 | 0.00 | 0.00 | 0.00 | 51 | 1012.9 |
| 20260509050329 | 59 | 162 | 2.0 | 3.0 | 0.00 | 0.00 | 0.00 | 51 | 1012.8 |
| 20260509045826 | 59 | 213 | 0.0 | 3.0 | 0.00 | 0.00 | 0.00 | 51 | 1012.8 |
| 20260509045323 | 59 | 207 | 2.0 | 4.0 | 0.00 | 0.00 | 0.00 | 51 | 1012.8 |
| 20260509044820 | 59 | 218 | 0.0 | 1.0 | 0.00 | 0.00 | 0.00 | 51 | 1012.9 |
| 20260509044317 | 60 | 218 | 1.0 | 1.0 | 0.00 | 0.00 | 0.00 | 51 | 1012.7 |
| 20260509043814 | 60 | 198 | 2.0 | 2.0 | 0.00 | 0.00 | 0.00 | 50 | 1013.0 |
| 20260509043310 | 60 | 212 | 2.0 | 3.0 | 0.00 | 0.00 | 0.00 | 50 | 1012.9 |
| 20260509042806 | 60 | 198 | 2.0 | 3.0 | 0.00 | 0.00 | 0.00 | 50 | 1012.9 |
| 20260509042306 | 60 | 222 | 2.0 | 3.0 | 0.00 | 0.00 | 0.00 | 50 | 1013.0 |
| 20260509041759 | 60 | 239 | 1.0 | 3.0 | 0.00 | 0.00 | 0.00 | 50 | 1012.7 |
| 20260509041256 | 60 | 229 | 2.0 | 3.0 | 0.00 | 0.00 | 0.00 | 51 | 1013.0 |
| 20260509040754 | 60 | 209 | 1.0 | 3.0 | 0.00 | 0.00 | 0.00 | 51 | 1012.7 |
| 20260509040251 | 60 | 211 | 1.0 | 2.0 | 0.00 | 0.00 | 0.00 | 51 | 1012.9 |
| 20260509035748 | 60 | 187 | 2.0 | 6.0 | 0.00 | 0.00 | 0.00 | 51 | 1013.0 |
| 20260509035245 | 60 | 182 | 1.0 | 2.0 | 0.00 | 0.00 | 0.00 | 52 | 1013.0 |
| 20260509034742 | 60 | 205 | 0.0 | 4.0 | 0.00 | 0.00 | 0.00 | 51 | 1013.0 |
| 20260509034239 | 60 | 204 | 0.0 | 3.0 | 0.00 | 0.00 | 0.00 | 52 | 1012.9 |
| 20260509033736 | 60 | 202 | 1.0 | 7.0 | 0.00 | 0.00 | 0.00 | 51 | 1013.0 |